TimeMDT,TemperatureF,Dew PointF,Humidity,Sea Level PressureIn,VisibilityMPH,Wind Direction,Wind SpeedMPH,Gust SpeedMPH,PrecipitationIn,Events,Conditions,WindDirDegrees,DateUTC
12:53 AM,30.0,8.1,40,30.26,10.0,Calm,Calm,-,N/A,,Clear,0,2012-10-07 06:53:00
1:53 AM,28.0,9.0,45,30.27,10.0,NE,4.6,-,N/A,,Clear,40,2012-10-07 07:53:00
2:53 AM,27.0,10.0,49,30.27,10.0,ENE,5.8,-,N/A,,Clear,70,2012-10-07 08:53:00
3:53 AM,26.1,10.0,51,30.26,10.0,NE,3.5,-,N/A,,Clear,40,2012-10-07 09:53:00
4:53 AM,25.0,10.9,55,30.26,10.0,East,3.5,-,N/A,,Clear,100,2012-10-07 10:53:00
5:53 AM,24.1,10.0,55,30.26,10.0,Calm,Calm,-,N/A,,Clear,0,2012-10-07 11:53:00
6:53 AM,24.1,10.9,57,30.27,10.0,East,4.6,-,N/A,,Clear,90,2012-10-07 12:53:00
7:53 AM,21.9,12.0,66,30.30,10.0,NE,3.5,-,N/A,,Clear,40,2012-10-07 13:53:00
8:53 AM,26.1,12.0,55,30.31,10.0,NE,3.5,-,N/A,,Clear,50,2012-10-07 14:53:00
9:53 AM,32.0,12.9,45,30.31,10.0,Calm,Calm,-,N/A,,Clear,0,2012-10-07 15:53:00
11:53 AM,46.0,15.1,29,30.25,10.0,Calm,Calm,-,N/A,,Clear,0,2012-10-07 17:53:00
12:53 PM,51.1,18.0,27,30.22,10.0,SW,6.9,-,N/A,,Clear,230,2012-10-07 18:53:00
1:53 PM,52.0,19.0,27,30.20,10.0,South,3.5,-,N/A,,Clear,190,2012-10-07 19:53:00
2:53 PM,54.0,18.0,24,30.17,10.0,SW,9.2,-,N/A,,Clear,230,2012-10-07 20:53:00
3:53 PM,55.0,17.1,23,30.14,10.0,Variable,4.6,-,N/A,,Clear,0,2012-10-07 21:53:00
4:53 PM,55.9,17.1,22,30.12,10.0,South,8.1,-,N/A,,Clear,180,2012-10-07 22:53:00
5:53 PM,55.0,16.0,22,30.12,10.0,South,6.9,-,N/A,,Clear,190,2012-10-07 23:53:00
6:53 PM,52.0,17.1,25,30.13,10.0,South,6.9,-,N/A,,Clear,180,2012-10-08 00:53:00
7:53 PM,46.0,18.0,33,30.15,10.0,South,4.6,-,N/A,,Clear,170,2012-10-08 01:53:00
8:53 PM,43.0,19.9,40,30.14,10.0,Calm,Calm,-,N/A,,Clear,0,2012-10-08 02:53:00
9:53 PM,37.9,19.9,48,30.14,10.0,North,3.5,-,N/A,,Clear,350,2012-10-08 03:53:00
10:53 PM,34.0,19.9,56,30.13,9.0,NNE,3.5,-,N/A,,Clear,30,2012-10-08 04:53:00
11:53 PM,32.0,19.0,59,30.12,10.0,Calm,Calm,-,N/A,,Clear,0,2012-10-08 05:53:00